Home   Weather   Sevilla   Past weeks

Flag for Spain Past Weather in Sevilla, Spain — Yesterday and Last 2 Weeks

Now
66 °F

Clear.


Feels Like: 66 °F
Forecast: 55 / 79 °F
Wind: 2 mph from North

Location: Sevilla / San Pablo

Current Time: Apr 24, 2017 at 1:46:17 am

Latest Report: Apr 24, 2017 at 1:00 am


Visibility: 10 mi

Pressure: 29.98 "Hg

Humidity: 64%

Dew Point: 54 °F

Location of SevillaLocation

Past Weather in Sevilla — Graph

°F

Sevilla Temperature Yesterday

Maximum temperature yesterday: 81 °F (at 4:30 pm)
Minimum temperature yesterday: 59 °F (at 4:30 am)
Average temperature yesterday: 69 °F

High & Low Weather Summary for the Past Weeks

 TemperatureHumidityPressure
High90 °F (Apr 18, 4:30 pm)100% (Apr 15, 5:00 am)30.21 "Hg (Apr 15, 5:00 am)
Low52 °F (Apr 11, 5:30 am)15% (Apr 11, 6:00 pm)29.74 "Hg (Apr 18, 6:30 pm)
Average68 °F55%30.03 "Hg
* Reported Apr 9 12:00 am — Apr 24 12:30 am, Sevilla, Weather by CustomWeather, © 2017

Note: Actual official high and low records may vary slightly from our data, if they occured in-between our weather recording intervals... More about our weather records

Advertising

Sevilla Weather History for the Previous 24 Hours

Scroll right to see more
 ConditionsComfort  
Time TempWeatherWind HumidityBarometerVisibility
12:30 am
Mon, Apr 24
66 °FClear.7 mph60%29.98 "Hg10 mi
12:00 am66 °FClear.7 mph64%29.98 "Hg10 mi
11:30 pm
Sun, Apr 23
68 °FClear.9 mph60%29.98 "Hg10 mi
11:00 pm70 °FPassing clouds.7 mph53%29.98 "HgN/A
10:30 pm70 °FClear.5 mph53%29.95 "Hg10 mi
10:00 pm72 °FPassing clouds.8 mph47%29.95 "HgN/A
9:30 pm73 °FPassing clouds.10 mph44%29.92 "HgN/A
9:00 pm73 °FSunny.9 mph41%29.92 "Hg10 mi
8:30 pm77 °FPassing clouds.10 mph36%29.92 "HgN/A
8:00 pm77 °FSunny.13 mph36%29.92 "Hg10 mi
7:30 pm81 °FPassing clouds.3 mph32%29.92 "HgN/A
7:00 pm81 °FSunny.2 mph30%29.92 "Hg10 mi
6:30 pm81 °FPassing clouds.9 mph32%29.92 "HgN/A
6:00 pm81 °FPassing clouds.5 mph34%29.92 "HgN/A
5:30 pm81 °FSunny.6 mph34%29.92 "Hg10 mi
5:00 pm81 °FPassing clouds.5 mph32%29.92 "HgN/A
4:30 pm81 °FSunny.1 mph32%29.95 "Hg10 mi
4:00 pm79 °FSunny.2 mph34%29.95 "Hg10 mi
3:00 pm79 °FSunny.2 mph34%29.98 "Hg10 mi
2:30 pm77 °FSunny.1 mph34%29.98 "Hg10 mi
2:00 pm77 °FSunny.1 mph34%29.98 "Hg10 mi
1:30 pm75 °FSunny.2 mph39%30.01 "Hg10 mi
1:00 pm75 °FSunny.2 mph41%30.01 "Hg10 mi
12:30 pm73 °FSunny.No wind44%30.01 "Hg10 mi
12:00 pm72 °FSunny.1 mph47%30.04 "Hg10 mi
11:30 am70 °FSunny.1 mph50%30.04 "Hg10 mi
11:00 am68 °FPassing clouds.5 mph53%30.04 "HgN/A
10:30 am66 °FPassing clouds.7 mph56%30.04 "HgN/A
10:00 am64 °FSunny.9 mph64%30.01 "Hg10 mi
9:30 am63 °FSunny.6 mph73%30.04 "Hg10 mi
9:00 am61 °FSunny.6 mph72%30.01 "Hg10 mi
8:30 am61 °FSunny.3 mph77%30.01 "Hg10 mi
8:00 am59 °FSunny.2 mph82%30.01 "Hg10 mi
7:30 am59 °FClear.1 mph82%30.01 "Hg10 mi
7:00 am59 °FClear.1 mph82%30.01 "Hg10 mi
6:30 am59 °FClear.2 mph82%30.01 "Hg10 mi
6:00 am61 °FClear.1 mph83%30.01 "Hg10 mi
5:30 am61 °FClear.No wind83%30.01 "Hg10 mi
4:30 am59 °FClear.1 mph82%30.01 "Hg10 mi
3:30 am61 °FClear.2 mph77%30.04 "Hg10 mi
3:00 am61 °FClear.2 mph72%30.04 "Hg10 mi
2:30 am61 °FCool.3 mph77%30.04 "HgN/A
2:00 am63 °FMild.6 mph73%30.04 "HgN/A
1:30 am63 °FMild.5 mph77%30.04 "HgN/A
1:00 am63 °FClear.6 mph73%30.04 "Hg10 mi
Weather by CustomWeather, © 2017

See weather overviewHow to use our weather pages